Showing default

GLOBALSTAR M068, 32266

Orbit data source: Space-Track

GLOBALSTAR M068, 32266 is a payload satellite owned by Globalstar (US) in LEO that was launched on Sat, 20 Oct 2007 UTC via a SOYUZ-FG launch vehicle from the Tyuratam Missile And Space Complex (TTMTR). Payload-class satellites include a variety of spacecraft equipped with specific instruments for various scientific and technological missions. These include communications satellites like Starlink; space stations such as the ISS; scientific satellites like the Hubble; Earth observation satellites from companies like Planet Labs, Umbra, and HawkEye 360; GPS; miniature CubeSats for education and research; and military/defense satellites.

Loading next visibility...
Identifier
32266, 2007-048D
Orbit
LEO
Country
Flag of UnknownUnknown / GLOB
Related business
Manufacturer
SS/Loral
Mission
Non-operational Commercial Communications
Bus & Motor
LS-400, LS-400 AOCS
Mass
450 kg wet, 380 kg dry
Launch date (UTC)
2007-10-20 (18 years ago)
Launch vehicle
SOYUZ-FG
Launch site
Tyuratam Missile And Space Complex (TTMTR)
Object type
Payload
Rocket body
Debris
Shape & HBR
Box + 2 Pan, 6.0 m
Radar Cross Section
5.587 m², Large (>1 m²)

Expand to show TLE details & history
Last TLE update: 1 day ago

TLE from 1 day ago
0 GLOBALSTAR M068
1 32266U 07048D   25288.28842686 -.00000051  00000-0  29366-3 0  9993
2 32266  51.9886 296.1468 0001320  48.0689 325.3538 12.62830880832735
Epoch: 2025-10-15T06:55Z
TLE epoch observation values (Epoch: 2025-10-15T06:55:20.080Z)
Latitude
10.5213°
Longitude
176.55366°
Altitude
1,410.373 km
Speed
7.157 km/s
True Right ascension
20h 17m 48s
True Declination
10° 27' 54"
Sunlit
Object was in daylight at epoch
Visualization orbit readout
Latitude
Unknown
Longitude
Unknown
Altitude
Unknown
Speed
Unknown
Apparent Right ascension
Unknown
Apparent Declination
Unknown
Sunlit
N/A
Visualization observer readout
Local Sidereal Time
03:45:37
Azimuth
Unknown
Elevation
Unknown
Doppler factor
Unknown
Orbital elements
Apogee altitude
1,412.704 km
Perigee altitude
1,410.647 km
Semi-major axis
7,789.813 km
Eccentricity
0.00013
Inclination
51.9886°
RAAN
296.1468°
Arg. of periapsis
48.0689°
True anomaly
325.3452°
Mean anomaly
325.3538°
Eccentric anomaly
325.3495°
Mean motion
3.15684 °/min
Orbital period
114.04 mins
BSTAR
0.00029366
Loading maneuver chart data...
Computing Atmospheric mass density...
Loading historical data...
Loading historical data...
Loading historical data...
Loading historical data...
Loading historical data...
Loading historical data...
Loading historical data...
Other satellites on launch #48 in the year 2007 (2007-10-20 UTC)

Documentation

Showing up to 5 results
|